Weather History for KPHP - November, 2011

Change the Weather History Date:

Wednesday, November 16, 2011

  Actual Average Record
Temperature  
Mean Temperature 25 °F 34 °F  
Max Temperature 38 °F 47 °F 75 °F (2001)
Min Temperature 11 °F 21 °F -11 °F (1959)
Degree Days  
Heating Degree Days 40 31  
Month to date heating degree days 422 440  
Since 1 July heating degree days 965 1143  
Cooling Degree Days 0 0  
Month to date cooling degree days 0 0  
Year to date cooling degree days 837 818  
Moisture  
Dew Point 5 °F    
Average Humidity 42    
Maximum Humidity 62    
Minimum Humidity 21    
Precipitation  
Precipitation 0.00 in 0.02 in 0.25 in (1971)
Month to date precipitation T 0.41  
Year to date precipitation 15.35 16.71  
Sea Level Pressure  
Sea Level Pressure 30.27 in    
Wind  
Wind Speed 11 mph (WNW)    
Max Wind Speed 29 mph    
Max Gust Speed 35 mph    
Visibility 10 miles    
Events      
T = Trace of Precipitation, MM = Missing Value Source: NWS Daily Summary

Daily Weather History Graph

Daily Weather History Graph

Search for Another Location

Airport or City:

Trip Planner

Search our weather history database for the weather conditions in past years. The results will help you decide how hot, cold, wet, or windy it might be!

Date:

Astronomy

Nov. 16, 2011 Rise Set
Actual Time 6:42 AM MST 4:19 PM MST
Civil Twilight 6:11 AM MST 4:50 PM MST
Nautical Twilight 5:36 AM MST 5:25 PM MST
Astronomical Twilight 5:02 AM MST 5:59 PM MST
Moon 9:37 PM MST (11/16) 11:18 AM MST (11/16)
Length of Visible Light 10h 39m
Length of Day
9h 36m
Waning Gibbous, 69% of the Moon is Illuminated
Nov 16
Waning Gibbous
Nov 18
Last Quarter
Nov 24
New
Dec 2
First Quarter
Dec 10
Full

Hourly Weather History & Observations

Time (MST) Temp. Windchill Dew Point Humidity Pressure Visibility Wind Dir Wind Speed Gust Speed Precip Events Conditions
12:55 AM 23.0 °F 17.0 °F 8.1 °F 53% 30.14 in 10.0 mi West 4.6 mph - N/A   Clear
1:55 AM 21.9 °F 14.5 °F 8.1 °F 55% 30.15 in 10.0 mi WSW 5.8 mph - N/A   Clear
2:55 AM 21.0 °F 16.2 °F 8.1 °F 57% 30.15 in 10.0 mi NW 3.5 mph - N/A   Clear
3:55 AM 19.9 °F 11.1 °F 9.0 °F 62% 30.18 in 10.0 mi West 6.9 mph - N/A   Clear
4:55 AM 19.0 °F 10.0 °F 8.1 °F 62% 30.21 in 10.0 mi West 6.9 mph - N/A   Clear
5:55 AM 19.9 °F 11.1 °F 8.1 °F 60% 30.24 in 10.0 mi West 6.9 mph - N/A   Clear
6:55 AM 18.0 °F 7.7 °F 7.0 °F 62% 30.28 in 10.0 mi West 8.1 mph - N/A   Clear
7:55 AM 23.0 °F 15.8 °F 10.9 °F 60% 30.31 in 10.0 mi West 5.8 mph - N/A   Clear
8:55 AM 28.0 °F 17.0 °F 10.9 °F 49% 30.33 in 10.0 mi WNW 13.8 mph - N/A   Clear
9:55 AM 32.0 °F 18.6 °F 9.0 °F 38% 30.32 in 10.0 mi NW 25.3 mph 31.1 mph N/A   Clear
10:55 AM 34.0 °F 22.7 °F 5.0 °F 30% 30.32 in 10.0 mi NW 19.6 mph 32.2 mph N/A   Clear
11:55 AM 35.1 °F 23.8 °F 5.0 °F 28% 30.31 in 10.0 mi WNW 20.7 mph 27.6 mph N/A   Clear
12:55 PM 36.0 °F 24.4 °F 3.0 °F 25% 30.29 in 10.0 mi WNW 23.0 mph 29.9 mph N/A   Clear
1:55 PM 37.0 °F 26.4 °F 1.0 °F 22% 30.28 in 10.0 mi NW 20.7 mph 28.8 mph N/A   Clear
2:55 PM 37.0 °F 26.4 °F 1.0 °F 22% 30.28 in 10.0 mi WNW 20.7 mph 26.5 mph N/A   Clear
3:55 PM 35.1 °F 27.4 °F 1.9 °F 25% 30.28 in 10.0 mi WNW 10.4 mph - N/A   Clear
4:55 PM 26.1 °F 17.6 °F 1.0 °F 34% 30.30 in 10.0 mi NW 8.1 mph - N/A   Clear
5:55 PM 25.0 °F 18.1 °F 1.0 °F 36% 30.30 in 10.0 mi WSW 5.8 mph - N/A   Clear
6:55 PM 21.0 °F 14.6 °F 1.0 °F 42% 30.30 in 10.0 mi West 4.6 mph - N/A   Clear
7:55 PM 19.0 °F 9.0 °F -0.0 °F 43% 30.30 in 10.0 mi West 8.1 mph - N/A   Clear
8:55 PM 17.1 °F 8.7 °F -0.0 °F 47% 30.29 in 10.0 mi West 5.8 mph - N/A   Clear
9:55 PM 15.1 °F 4.2 °F -0.0 °F 51% 30.28 in 10.0 mi West 8.1 mph - N/A   Clear
10:55 PM 12.9 °F 1.6 °F -0.0 °F 56% 30.27 in 10.0 mi West 8.1 mph - N/A   Clear
11:55 PM 12.9 °F -0.2 °F 1.0 °F 59% 30.26 in 10.0 mi WSW 10.4 mph - N/A   Clear